Jaipur, India

3:59 AM IST on May 26, 2017 (GMT +0530)
Jaipur

Weather History for VIJP - November, 2012

Change the Weather History Date:

Thursday, November 1, 2012

  Actual Average Record
Temperature  
Mean Temperature 73 °F -  
Max Temperature 86 °F - - ()
Min Temperature 60 °F - - ()
Cooling Degree Days 8    
Growing Degree Days 23 (Base 50)    
Moisture  
Dew Point 54 °F    
Average Humidity 52    
Maximum Humidity 88    
Minimum Humidity 16    
Precipitation  
Precipitation 0.00 in - - ()
Sea Level Pressure  
Sea Level Pressure 29.97 in    
Wind  
Wind Speed 1 mph ()    
Max Wind Speed 7 mph    
Max Gust Speed -    
Visibility 1.1 miles    
Events Fog    
T = Trace of Precipitation, MM = Missing Value Source: Averaged Metar Reports

Daily Weather History Graph

Daily Weather History Graph

Search for Another Location

Airport or City:

Trip Planner

Search our weather history database for the weather conditions in past years. The results will help you decide how hot, cold, wet, or windy it might be!

Date:

Astronomy

Nov. 01, 2012 Rise Set
Actual Time 6:36 AM IST 5:43 PM IST
Civil Twilight 6:12 AM IST 6:07 PM IST
Nautical Twilight 5:45 AM IST 6:35 PM IST
Astronomical Twilight 5:17 AM IST 7:02 PM IST
Moon 7:30 PM IST (11/1) 8:35 AM IST (11/1)
Length of Visible Light 11h 55m
Length of Day
11h 07m
Waning Gibbous, 95% of the Moon is Illuminated
Nov 1
Waning Gibbous
Nov 7
Last Quarter
Nov 14
New
Nov 20
First Quarter
Nov 28
Full

Hourly Weather History & Observations

Time (IST) Temp. Heat Index Dew Point Humidity Pressure Visibility Wind Dir Wind Speed Gust Speed Precip Events Conditions
12:00 AM 71.6 °F - 51.8 °F 50% 29.98 in 1.2 mi Calm Calm - N/A   Smoke
1:00 AM 68.0 °F - 51.8 °F 56% 29.98 in 1.2 mi Calm Calm - N/A   Smoke
2:00 AM 68.0 °F - 51.8 °F 56% 29.98 in 1.2 mi Calm Calm - N/A   Smoke
2:30 AM 67 °F - 55 °F 57% 29.92 in 1 mi Calm Calm - -   Smoke
2:30 AM 66.2 °F - 53.6 °F 64% 29.98 in 1.2 mi Calm Calm - N/A   Smoke
3:00 AM 66.2 °F - 53.6 °F 64% 29.95 in 1.2 mi Calm Calm - N/A   Smoke
4:00 AM 66.2 °F - 53.6 °F 64% 29.95 in 1.2 mi Calm Calm - N/A   Smoke
5:00 AM 68.0 °F - 53.6 °F 60% 29.95 in 1.2 mi Calm Calm - N/A   Smoke
5:30 AM 64 °F - 54 °F 62% 29.94 in 1 mi Calm Calm - -   Smoke
5:30 AM 64.4 °F - 53.6 °F 68% 29.98 in 1.2 mi Calm Calm - N/A   Smoke
6:00 AM 62.6 °F - 53.6 °F 72% 29.98 in 1.1 mi Calm Calm - N/A   Smoke
7:00 AM 59.0 °F - 55.4 °F 88% 30.01 in 0.6 mi Calm Calm - N/A   Mist
8:00 AM 64.4 °F - 57.2 °F 77% 30.04 in - Variable 2.3 mph - N/A Fog Shallow Fog
8:30 AM 69 °F - 64 °F 78% 29.95 in 2 mi Calm Calm - -   Mist
8:30 AM 69.8 °F - 62.6 °F 78% 30.04 in 0.5 mi Calm Calm - N/A   Mist
9:00 AM 73.4 °F - 60.8 °F 65% 30.04 in 0.6 mi Variable 1.2 mph - N/A   Smoke
9:30 AM 75.2 °F - 60.8 °F 61% 30.04 in 0.6 mi Variable 1.2 mph - N/A   Smoke
10:00 AM 77.0 °F - 60.8 °F 57% 30.04 in 0.6 mi East 3.5 mph - N/A   Smoke
10:30 AM 78.8 °F - 59.0 °F 51% 30.04 in 0.6 mi Variable 2.3 mph - N/A   Smoke
11:00 AM 80.6 °F 81.1 °F 59.0 °F 48% 30.04 in 0.6 mi ESE 4.6 mph - N/A   Smoke
11:30 AM 84 °F - 51 °F 21% 29.95 in 2 mi Calm Calm - -   Smoke
12:30 PM 82.4 °F 81.7 °F 55.4 °F 39% 29.98 in 1.1 mi Calm Calm - N/A   Smoke
1:00 PM 84.2 °F 83.0 °F 55.4 °F 37% 29.98 in 1.1 mi Variable 1.2 mph - N/A   Smoke
2:00 PM 86.0 °F 84.5 °F 55.4 °F 35% 29.95 in 1.2 mi Calm Calm - N/A   Smoke
2:30 PM 86 °F - 47 °F 16% 29.86 in 1 mi East 6.9 mph - -   Haze
3:00 PM 86.0 °F - 48.2 °F 27% 29.92 in 1.6 mi NE 6.9 mph - N/A   Smoke
4:00 PM 84.2 °F - 48.2 °F 29% 29.92 in 1.6 mi Variable 5.8 mph - N/A   Smoke
5:00 PM 82.4 °F - 48.2 °F 30% 29.92 in 1.6 mi East 3.5 mph - N/A   Smoke
6:00 PM 78.8 °F - 51.8 °F 39% 29.92 in 1.6 mi Calm Calm - N/A   Smoke
7:00 PM 77.0 °F - 51.8 °F 41% 29.95 in 1.2 mi Calm Calm - N/A   Smoke
8:00 PM 73.4 °F - 53.6 °F 50% 29.95 in 1.2 mi Calm Calm - N/A   Smoke
8:30 PM 71 °F - 53 °F 41% 29.90 in 1 mi Calm Calm - -   Smoke
9:00 PM 71.6 °F - 53.6 °F 53% 29.95 in 1.2 mi Calm Calm - N/A   Smoke
10:00 PM 69.8 °F - 53.6 °F 56% 29.98 in 1.2 mi Calm Calm - N/A   Smoke
11:00 PM 71.6 °F - 53.6 °F 53% 29.95 in 1.2 mi Calm Calm - N/A   Smoke
11:30 PM 72 °F - 49 °F 34% 29.89 in 1 mi Calm Calm - -   Haze